Air Force Academy, CO

11:11 PM MDT on September 21, 2017 (GMT -0600)
Usaf Academy

Weather History for KAFF - March, 2013

Change the Weather History Date:

Thursday, March 21, 2013

  Actual Average Record
Temperature  
Mean Temperature 44 °F -  
Max Temperature 58 °F 50 °F 71 °F (2016)
Min Temperature 27 °F 27 °F 14 °F (2002)
Degree Days  
Heating Degree Days 22    
Moisture  
Dew Point 20 °F    
Average Humidity 35    
Maximum Humidity 93    
Minimum Humidity 17    
Precipitation  
Precipitation 0.00 in - - ()
Sea Level Pressure  
Sea Level Pressure 29.58 in    
Wind  
Wind Speed 12 mph (WNW)    
Max Wind Speed 25 mph    
Max Gust Speed 40 mph    
Visibility 10 miles    
Events      
Averages and records for this station are not official NWS values.
T = Trace of Precipitation, MM = Missing Value Source: NWS Daily Summary

Daily Weather History Graph

Daily Weather History Graph

Search for Another Location

Airport or City:

Trip Planner

Search our weather history database for the weather conditions in past years. The results will help you decide how hot, cold, wet, or windy it might be!

Date:

Astronomy

Mar. 21, 2013 Rise Set
Actual Time 7:00 AM MDT 7:12 PM MDT
Civil Twilight 6:34 AM MDT 7:39 PM MDT
Nautical Twilight 6:02 AM MDT 8:10 PM MDT
Astronomical Twilight 5:31 AM MDT 8:42 PM MDT
Moon 1:47 PM MDT (3/21) 3:21 AM MDT (3/21)
Length of Visible Light 13h 05m
Length of Day
12h 11m
Waxing Gibbous, 69% of the Moon is Illuminated
Mar 21
Waxing Gibbous
Mar 27
Full
Apr 2
Last Quarter
Apr 10
New
Apr 18
First Quarter

Hourly Weather History & Observations

Time (MDT) Temp. Windchill Dew Point Humidity Pressure Visibility Wind Dir Wind Speed Gust Speed Precip Events Conditions
12:58 AM 45.0 °F 39.7 °F 17.8 °F 34% 29.69 in 10.0 mi NW 10.4 mph - N/A   Clear
1:58 AM 46.2 °F 41.2 °F 17.8 °F 32% 29.67 in 10.0 mi West 10.4 mph 25.3 mph N/A   Clear
2:58 AM 44.8 °F 39.4 °F 17.8 °F 34% 29.65 in 10.0 mi West 10.4 mph - N/A   Clear
3:58 AM 45.9 °F 41.2 °F 18.5 °F 34% 29.62 in 10.0 mi NW 9.2 mph 17.3 mph N/A   Clear
4:58 AM 42.4 °F 38.1 °F 17.6 °F 37% 29.68 in 10.0 mi Variable 6.9 mph - N/A   Scattered Clouds
5:58 AM 39.9 °F 34.5 °F 17.2 °F 40% 29.68 in 10.0 mi North 8.1 mph 17.3 mph N/A   Mostly Cloudy
6:58 AM 37.6 °F 32.3 °F 19.2 °F 48% 29.62 in 10.0 mi SSE 6.9 mph - N/A   Overcast
7:58 AM 38.7 °F 35.2 °F 19.9 °F 47% 29.62 in 10.0 mi NNW 4.6 mph - N/A   Overcast
8:58 AM 41.9 °F - 21.2 °F 44% 29.60 in 10.0 mi West 2.3 mph - N/A   Clear
9:58 AM 46.8 °F - 17.2 °F 31% 29.55 in 10.0 mi SE 4.6 mph - N/A   Mostly Cloudy
10:58 AM 49.5 °F - 24.8 °F 38% 29.47 in 10.0 mi WSW 10.4 mph - N/A   Partly Cloudy
11:58 AM 54.7 °F - 22.8 °F 29% 29.42 in 10.0 mi South 16.1 mph 18.4 mph N/A   Partly Cloudy
12:09 PM 55.4 °F - 19.4 °F 25% 29.57 in 10.0 mi SSW 17.3 mph 19.6 mph N/A   Partly Cloudy
12:14 PM 55.4 °F - 19.4 °F 25% 29.57 in 10.0 mi WSW 11.5 mph 21.9 mph N/A   Scattered Clouds
12:29 PM 57.2 °F - 17.6 °F 21% 29.56 in 10.0 mi West 12.7 mph 25.3 mph N/A   Scattered Clouds
12:33 PM 57.2 °F - 19.4 °F 23% 29.56 in 10.0 mi WSW 13.8 mph 20.7 mph N/A   Scattered Clouds
12:34 PM 57.2 °F - 19.4 °F 23% 29.56 in 10.0 mi SW 12.7 mph 20.7 mph N/A   Scattered Clouds
12:43 PM 55.4 °F - 19.4 °F 25% 29.56 in 10.0 mi South 16.1 mph 24.2 mph N/A   Scattered Clouds
12:44 PM 55.4 °F - 19.4 °F 25% 29.56 in 10.0 mi South 17.3 mph 24.2 mph N/A   Scattered Clouds
12:45 PM 55.4 °F - 19.4 °F 25% 29.56 in 10.0 mi SSE 17.3 mph 24.2 mph N/A   Scattered Clouds
12:51 PM 55.4 °F - 19.4 °F 25% 29.55 in 10.0 mi SSW 15.0 mph 24.2 mph N/A   Partly Cloudy
12:52 PM 55.4 °F - 19.4 °F 25% 29.55 in 10.0 mi SSW 15.0 mph 24.2 mph N/A   Partly Cloudy
12:53 PM 55.4 °F - 19.4 °F 25% 29.55 in 10.0 mi SW 12.7 mph 23.0 mph N/A   Partly Cloudy
12:58 PM 54.5 °F - 19.4 °F 25% 29.41 in 10.0 mi Variable 6.9 mph 23.0 mph N/A   Scattered Clouds
1:06 PM 55.4 °F - 17.6 °F 23% 29.55 in 10.0 mi SW 15.0 mph 24.2 mph N/A   Scattered Clouds
1:07 PM 55.4 °F - 17.6 °F 23% 29.55 in 10.0 mi West 15.0 mph 24.2 mph N/A   Scattered Clouds
1:33 PM 53.6 °F - 19.4 °F 26% 29.56 in 10.0 mi WNW 24.2 mph 34.5 mph N/A   Partly Cloudy
1:58 PM 54.7 °F - 15.3 °F 21% 29.39 in 10.0 mi WNW 6.9 mph 19.6 mph N/A   Partly Cloudy
2:11 PM 57.2 °F - 15.8 °F 20% 29.54 in 10.0 mi West 16.1 mph 27.6 mph N/A   Partly Cloudy
2:25 PM 59.0 °F - 14.0 °F 17% 29.53 in 10.0 mi West 25.3 mph 40.3 mph N/A   Scattered Clouds
2:28 PM 59.0 °F - 14.0 °F 17% 29.53 in 10.0 mi WNW 19.6 mph 40.3 mph N/A   Scattered Clouds
2:30 PM 59.0 °F - 14.0 °F 17% 29.53 in 10.0 mi WSW 15.0 mph 40.3 mph N/A   Scattered Clouds
2:33 PM 57.2 °F - 14.0 °F 18% 29.53 in 10.0 mi WNW 13.8 mph 40.3 mph N/A   Partly Cloudy
2:34 PM 57.2 °F - 15.8 °F 20% 29.53 in 10.0 mi WNW 12.7 mph 40.3 mph N/A   Partly Cloudy
2:58 PM 58.6 °F - 14.2 °F 17% 29.37 in 10.0 mi WSW 20.7 mph 27.6 mph N/A   Scattered Clouds
3:20 PM 57.2 °F - 19.4 °F 23% 29.54 in 10.0 mi WNW 15.0 mph 23.0 mph N/A   Mostly Cloudy
3:25 PM 57.2 °F - 19.4 °F 23% 29.55 in 10.0 mi NW 20.7 mph 31.1 mph N/A   Mostly Cloudy
3:44 PM 50.0 °F - 26.6 °F 40% 29.59 in 10.0 mi North 25.3 mph 33.4 mph N/A   Scattered Clouds
3:58 PM 47.7 °F - 22.8 °F 38% 29.50 in 10.0 mi NW 20.7 mph 31.1 mph N/A   Clear
4:58 PM 47.3 °F - 23.5 °F 39% 29.50 in 10.0 mi North 17.3 mph 25.3 mph N/A   Scattered Clouds
5:58 PM 47.1 °F - 22.1 °F 37% 29.56 in 10.0 mi North 17.3 mph 21.9 mph N/A   Clear
6:11 PM 46.4 °F 40.7 °F 21.2 °F 37% 29.65 in 10.0 mi NW 12.7 mph - N/A   Clear
6:58 PM 42.1 °F 35.2 °F 27.9 °F 57% 29.66 in 10.0 mi NNW 12.7 mph - N/A   Clear
7:58 PM 36.5 °F 28.7 °F 30.2 °F 78% 29.70 in 10.0 mi NNE 11.5 mph - N/A   Clear
8:58 PM 34.9 °F 28.3 °F 28.8 °F 78% 29.76 in 10.0 mi NNW 8.1 mph - N/A   Partly Cloudy
9:58 PM 32.2 °F 28.9 °F 27.3 °F 82% 29.78 in 10.0 mi North 3.5 mph - N/A   Clear
10:58 PM 28.4 °F 19.1 °F 25.2 °F 88% 29.78 in 10.0 mi NNW 10.4 mph - N/A   Clear
11:58 PM 27.1 °F 18.9 °F 25.3 °F 93% 29.77 in 10.0 mi North 8.1 mph - N/A   Clear